| time (UTC) | temp C | wind direction | speed KPH | gust KPH | rain 1hr cm | rain 24hr cm | rain mn cm | humidity % | barometer mb |
| 20260503002441 | 15 | 357 | 6.4 | 6.4 | 0.00 | 0.00 | 0.00 | 32 | 1016.8 |
| 20260503001937 | 15 | 261 | 9.7 | 11.3 | 0.00 | 0.00 | 0.00 | 31 | 1016.9 |
| 20260503001434 | 15 | 271 | 4.8 | 6.4 | 0.00 | 0.00 | 0.00 | 31 | 1016.8 |
| 20260503000932 | 15 | 288 | 8.0 | 11.3 | 0.00 | 0.00 | 0.00 | 32 | 1016.8 |
| 20260503000430 | 15 | 251 | 4.8 | 6.4 | 0.00 | 0.00 | 0.00 | 31 | 1016.9 |
| 20260502235926 | 15 | 317 | 3.2 | 6.4 | 0.00 | 0.00 | 0.00 | 31 | 1017.0 |
| 20260502235422 | 15 | 309 | 6.4 | 6.4 | 0.00 | 0.00 | 0.00 | 31 | 1017.0 |
| 20260502234920 | 15 | 267 | 6.4 | 9.7 | 0.00 | 0.00 | 0.00 | 30 | 1017.1 |
| 20260502234411 | 15 | 287 | 22.5 | 25.7 | 0.00 | 0.00 | 0.00 | 30 | 1016.9 |
| 20260502233908 | 15 | 337 | 11.3 | 14.5 | 0.00 | 0.00 | 0.00 | 29 | 1017.2 |
| 20260502233403 | 15 | 298 | 11.3 | 14.5 | 0.00 | 0.00 | 0.00 | 30 | 1017.2 |
| 20260502232901 | 15 | 340 | 4.8 | 4.8 | 0.00 | 0.00 | 0.00 | 30 | 1017.3 |
| 20260502232357 | 15 | 311 | 6.4 | 9.7 | 0.00 | 0.00 | 0.00 | 30 | 1017.3 |
| 20260502231854 | 16 | 235 | 9.7 | 14.5 | 0.00 | 0.00 | 0.00 | 29 | 1017.3 |
| 20260502231351 | 15 | 312 | 4.8 | 9.7 | 0.00 | 0.00 | 0.00 | 29 | 1017.4 |
| 20260502230849 | 16 | 239 | 6.4 | 9.7 | 0.00 | 0.00 | 0.00 | 28 | 1017.5 |
| 20260502230348 | 15 | 237 | 9.7 | 12.9 | 0.00 | 0.00 | 0.00 | 28 | 1017.4 |
| 20260502225844 | 16 | 306 | 6.4 | 6.4 | 0.00 | 0.00 | 0.00 | 28 | 1017.4 |
| 20260502225340 | 15 | 304 | 4.8 | 9.7 | 0.00 | 0.00 | 0.00 | 29 | 1017.5 |
| 20260502224837 | 16 | 334 | 11.3 | 12.9 | 0.00 | 0.00 | 0.00 | 29 | 1017.7 |
| 20260502224333 | 15 | 315 | 11.3 | 14.5 | 0.00 | 0.00 | 0.00 | 29 | 1017.8 |
| 20260502223831 | 16 | 294 | 17.7 | 20.9 | 0.00 | 0.00 | 0.00 | 29 | 1017.6 |
| 20260502223329 | 16 | 312 | 12.9 | 16.1 | 0.00 | 0.00 | 0.00 | 29 | 1017.7 |
| 20260502222826 | 16 | 207 | 6.4 | 11.3 | 0.00 | 0.00 | 0.00 | 28 | 1017.7 |
| 20260502222323 | 16 | 271 | 8.0 | 9.7 | 0.00 | 0.00 | 0.00 | 29 | 1017.8 |
| 20260502221819 | 15 | 340 | 3.2 | 4.8 | 0.00 | 0.00 | 0.00 | 29 | 1017.8 |
| 20260502221315 | 16 | 258 | 14.5 | 16.1 | 0.00 | 0.00 | 0.00 | 29 | 1017.7 |
| 20260502220813 | 16 | 252 | 6.4 | 9.7 | 0.00 | 0.00 | 0.00 | 29 | 1017.7 |
| 20260502220308 | 15 | 310 | 11.3 | 14.5 | 0.00 | 0.00 | 0.00 | 29 | 1018.0 |
| 20260502215805 | 15 | 36 | 4.8 | 4.8 | 0.00 | 0.00 | 0.00 | 28 | 1017.9 |
| 20260502215304 | 15 | 295 | 9.7 | 12.9 | 0.00 | 0.00 | 0.00 | 29 | 1017.9 |
| 20260502214759 | 16 | 261 | 11.3 | 16.1 | 0.00 | 0.00 | 0.00 | 29 | 1018.0 |
| 20260502214256 | 16 | 302 | 8.0 | 9.7 | 0.00 | 0.00 | 0.00 | 29 | 1018.2 |
| 20260502213753 | 15 | 319 | 4.8 | 6.4 | 0.00 | 0.00 | 0.00 | 28 | 1018.2 |
| 20260502213251 | 15 | 273 | 9.7 | 12.9 | 0.00 | 0.00 | 0.00 | 29 | 1018.0 |
| 20260502212749 | 15 | 249 | 9.7 | 11.3 | 0.00 | 0.00 | 0.00 | 29 | 1018.2 |
| 20260502212247 | 16 | 237 | 6.4 | 12.9 | 0.00 | 0.00 | 0.00 | 29 | 1018.3 |
| 20260502211743 | 15 | 244 | 12.9 | 16.1 | 0.00 | 0.00 | 0.00 | 29 | 1018.3 |
| 20260502211240 | 15 | 287 | 3.2 | 3.2 | 0.00 | 0.00 | 0.00 | 29 | 1018.2 |
| 20260502210737 | 15 | 280 | 8.0 | 9.7 | 0.00 | 0.00 | 0.00 | 29 | 1018.4 |
| 20260502210234 | 15 | 168 | 4.8 | 4.8 | 0.00 | 0.00 | 0.00 | 30 | 1018.5 |
| 20260502205732 | 16 | 276 | 16.1 | 22.5 | 0.00 | 0.00 | 0.00 | 30 | 1018.4 |
| 20260502205227 | 15 | 12 | 8.0 | 12.9 | 0.00 | 0.00 | 0.00 | 30 | 1018.4 |
| 20260502204725 | 15 | 305 | 12.9 | 14.5 | 0.00 | 0.00 | 0.00 | 30 | 1018.7 |
| 20260502204222 | 15 | 0 | 4.8 | 9.7 | 0.00 | 0.00 | 0.00 | 30 | 1018.7 |
| 20260502203720 | 15 | 145 | 3.2 | 4.8 | 0.00 | 0.00 | 0.00 | 30 | 1018.9 |
| 20260502203218 | 15 | 339 | 9.7 | 12.9 | 0.00 | 0.00 | 0.00 | 31 | 1018.7 |
| 20260502202711 | 15 | 314 | 6.4 | 9.7 | 0.00 | 0.00 | 0.00 | 30 | 1019.0 |
| 20260502202210 | 15 | 322 | 4.8 | 9.7 | 0.00 | 0.00 | 0.00 | 30 | 1019.1 |
| 20260502201707 | 14 | 319 | 6.4 | 9.7 | 0.00 | 0.00 | 0.00 | 31 | 1019.2 |
| 20260502201204 | 15 | 347 | 14.5 | 20.9 | 0.00 | 0.00 | 0.00 | 32 | 1019.3 |
| 20260502200659 | 15 | 332 | 6.4 | 11.3 | 0.00 | 0.00 | 0.00 | 31 | 1019.3 |
| 20260502200156 | 15 | 333 | 3.2 | 4.8 | 0.00 | 0.00 | 0.00 | 30 | 1019.3 |
| 20260502195655 | 15 | 319 | 11.3 | 14.5 | 0.00 | 0.00 | 0.00 | 30 | 1019.5 |
| 20260502195150 | 13 | 322 | 8.0 | 11.3 | 0.00 | 0.00 | 0.00 | 32 | 1019.6 |
| 20260502194647 | 13 | 308 | 8.0 | 12.9 | 0.00 | 0.00 | 0.00 | 33 | 1019.4 |
| 20260502194144 | 14 | 322 | 14.5 | 16.1 | 0.00 | 0.00 | 0.00 | 33 | 1019.4 |
| 20260502193641 | 13 | 4 | 9.7 | 11.3 | 0.00 | 0.00 | 0.00 | 33 | 1019.7 |
| 20260502193138 | 14 | 298 | 8.0 | 9.7 | 0.00 | 0.00 | 0.00 | 32 | 1019.6 |
| 20260502192633 | 15 | 270 | 3.2 | 3.2 | 0.00 | 0.00 | 0.00 | 30 | 1019.7 |
| 20260502192131 | 15 | 273 | 4.8 | 4.8 | 0.00 | 0.00 | 0.00 | 30 | 1019.7 |
| 20260502191627 | 14 | 272 | 9.7 | 11.3 | 0.00 | 0.00 | 0.00 | 31 | 1019.7 |
| 20260502191125 | 13 | 349 | 11.3 | 12.9 | 0.00 | 0.00 | 0.00 | 32 | 1019.9 |
| 20260502190622 | 13 | 265 | 8.0 | 11.3 | 0.00 | 0.00 | 0.00 | 33 | 1019.9 |
| 20260502190120 | 14 | 311 | 9.7 | 11.3 | 0.00 | 0.00 | 0.00 | 31 | 1020.0 |
| 20260502185614 | 14 | 240 | 6.4 | 9.7 | 0.00 | 0.00 | 0.00 | 30 | 1019.9 |
| 20260502185111 | 15 | 273 | 3.2 | 4.8 | 0.00 | 0.00 | 0.00 | 30 | 1020.1 |
| 20260502184608 | 13 | 232 | 3.2 | 3.2 | 0.00 | 0.00 | 0.00 | 32 | 1020.1 |
| 20260502184103 | 13 | 315 | 8.0 | 11.3 | 0.00 | 0.00 | 0.00 | 33 | 1020.2 |
| 20260502183559 | 13 | 272 | 4.8 | 6.4 | 0.00 | 0.00 | 0.00 | 32 | 1020.3 |
| 20260502183056 | 13 | 38 | 11.3 | 14.5 | 0.00 | 0.00 | 0.00 | 33 | 1020.2 |
| 20260502182551 | 12 | 285 | 14.5 | 17.7 | 0.00 | 0.00 | 0.00 | 34 | 1020.5 |
| 20260502182047 | 13 | 309 | 6.4 | 9.7 | 0.00 | 0.00 | 0.00 | 33 | 1020.3 |
| 20260502181545 | 13 | 276 | 4.8 | 4.8 | 0.00 | 0.00 | 0.00 | 31 | 1020.7 |
| 20260502181044 | 13 | 318 | 6.4 | 9.7 | 0.00 | 0.00 | 0.00 | 34 | 1020.5 |
| 20260502180540 | 13 | 332 | 11.3 | 12.9 | 0.00 | 0.00 | 0.00 | 33 | 1020.5 |
| 20260502170459 | 13 | 2 | 1.6 | 1.6 | 0.00 | 0.00 | 0.00 | 30 | 1020.9 |
| 20260502163943 | 12 | 302 | 11.3 | 16.1 | 0.00 | 0.00 | 0.00 | 33 | 1021.1 |
| 20260502163438 | 12 | 330 | 12.9 | 17.7 | 0.00 | 0.00 | 0.00 | 36 | 1021.1 |
| 20260502162937 | 12 | 12 | 12.9 | 17.7 | 0.00 | 0.00 | 0.00 | 34 | 1021.2 |
| 20260502162433 | 12 | 337 | 8.0 | 9.7 | 0.00 | 0.00 | 0.00 | 36 | 1021.0 |
| 20260502161930 | 12 | 311 | 3.2 | 3.2 | 0.00 | 0.00 | 0.00 | 33 | 1021.2 |
| 20260502161426 | 12 | 7 | 3.2 | 3.2 | 0.00 | 0.00 | 0.00 | 31 | 1021.2 |
| 20260502160924 | 12 | 350 | 4.8 | 6.4 | 0.00 | 0.00 | 0.00 | 35 | 1021.3 |
| 20260502160422 | 12 | 329 | 9.7 | 12.9 | 0.00 | 0.00 | 0.00 | 35 | 1021.3 |
| 20260502151901 | 11 | 309 | 8.0 | 11.3 | 0.00 | 0.00 | 0.00 | 43 | 1021.4 |
| 20260502151356 | 11 | 292 | 9.7 | 12.9 | 0.00 | 0.00 | 0.00 | 44 | 1021.3 |
| 20260502150855 | 11 | 299 | 4.8 | 6.4 | 0.00 | 0.00 | 0.00 | 45 | 1021.4 |
| 20260502150351 | 11 | 58 | 6.4 | 9.7 | 0.00 | 0.00 | 0.00 | 44 | 1021.6 |
| 20260502130739 | 6 | 281 | 4.8 | 4.8 | 0.00 | 0.00 | 0.00 | 79 | 1021.7 |
| 20260502130237 | 5 | 322 | 1.6 | 1.6 | 0.00 | 0.00 | 0.00 | 79 | 1021.7 |
| 20260502123722 | 5 | 332 | 0.0 | 0.0 | 0.00 | 0.00 | 0.00 | 77 | 1021.6 |
| 20260502123219 | 5 | 337 | 0.0 | 0.0 | 0.00 | 0.00 | 0.00 | 76 | 1021.5 |
| 20260502122716 | 6 | 349 | 0.0 | 0.0 | 0.00 | 0.00 | 0.00 | 73 | 1021.5 |
| 20260502122212 | 5 | 331 | 0.0 | 0.0 | 0.00 | 0.00 | 0.00 | 78 | 1021.6 |
| 20260502121711 | 3 | 330 | 0.0 | 0.0 | 0.00 | 0.00 | 0.00 | 80 | 1021.5 |
| 20260502121208 | 3 | 331 | 0.0 | 0.0 | 0.00 | 0.00 | 0.00 | 79 | 1021.4 |
| 20260502120704 | 3 | 332 | 0.0 | 0.0 | 0.00 | 0.00 | 0.00 | 81 | 1021.4 |
| 20260502120201 | 3 | 332 | 0.0 | 0.0 | 0.00 | 0.00 | 0.00 | 84 | 1021.3 |
| 20260502115659 | 2 | 331 | 0.0 | 0.0 | 0.00 | 0.00 | 0.00 | 87 | 1021.3 |
| 20260502115155 | 1 | 331 | 0.0 | 0.0 | 0.00 | 0.00 | 0.00 | 90 | 1021.2 |
| 20260502114651 | 1 | 320 | 0.0 | 0.0 | 0.00 | 0.00 | 0.00 | 91 | 1021.2 |
| 20260502114149 | 1 | 320 | 0.0 | 0.0 | 0.00 | 0.00 | 0.00 | 92 | 1021.1 |
| 20260502113646 | 1 | 316 | 0.0 | 0.0 | 0.00 | 0.00 | 0.00 | 93 | 1021.2 |
| 20260502113144 | 1 | 332 | 0.0 | 0.0 | 0.00 | 0.00 | 0.00 | 94 | 1021.3 |
| 20260502112641 | 0 | 323 | 0.0 | 1.6 | 0.00 | 0.00 | 0.00 | 95 | 1021.0 |
| 20260502112139 | 0 | 328 | 0.0 | 1.6 | 0.00 | 0.00 | 0.00 | 95 | 1021.0 |
| 20260502111636 | 0 | 335 | 1.6 | 1.6 | 0.00 | 0.00 | 0.00 | 95 | 1021.1 |
| 20260502111134 | 0 | 332 | 1.6 | 1.6 | 0.00 | 0.00 | 0.00 | 95 | 1020.8 |
| 20260502110631 | 0 | 327 | 0.0 | 0.0 | 0.00 | 0.00 | 0.00 | 95 | 1021.0 |
| 20260502110128 | 0 | 322 | 1.6 | 1.6 | 0.00 | 0.00 | 0.00 | 95 | 1021.0 |
| 20260502105626 | 0 | 321 | 1.6 | 1.6 | 0.00 | 0.00 | 0.00 | 95 | 1021.0 |
| 20260502105123 | 0 | 327 | 1.6 | 1.6 | 0.00 | 0.00 | 0.00 | 95 | 1021.0 |
| 20260502104620 | 0 | 334 | 0.0 | 1.6 | 0.00 | 0.00 | 0.00 | 95 | 1021.1 |
| 20260502104117 | 0 | 335 | 0.0 | 0.0 | 0.00 | 0.00 | 0.00 | 95 | 1021.0 |
| 20260502103615 | 0 | 335 | 1.6 | 3.2 | 0.00 | 0.00 | 0.00 | 95 | 1021.0 |
| 20260502103113 | 0 | 338 | 0.0 | 0.0 | 0.00 | 0.00 | 0.00 | 95 | 1021.1 |
| 20260502102609 | 0 | 344 | 1.6 | 1.6 | 0.00 | 0.00 | 0.00 | 95 | 1021.1 |
| 20260502102106 | 0 | 334 | 0.0 | 1.6 | 0.00 | 0.00 | 0.00 | 95 | 1021.0 |
| 20260502101604 | 0 | 331 | 0.0 | 0.0 | 0.00 | 0.00 | 0.00 | 95 | 1020.9 |
| 20260502101102 | 0 | 338 | 0.0 | 0.0 | 0.00 | 0.00 | 0.00 | 95 | 1020.9 |
| 20260502100600 | 0 | 338 | 0.0 | 1.6 | 0.00 | 0.00 | 0.00 | 94 | 1021.1 |
| 20260502091032 | 1 | 331 | 1.6 | 1.6 | 0.00 | 0.00 | 0.00 | 93 | 1020.7 |
| 20260502090529 | 1 | 345 | 0.0 | 0.0 | 0.00 | 0.00 | 0.00 | 93 | 1020.5 |
| 20260502071424 | 2 | 337 | 1.6 | 1.6 | 0.00 | 0.00 | 0.00 | 87 | 1020.8 |
| 20260502070922 | 2 | 338 | 1.6 | 1.6 | 0.00 | 0.00 | 0.00 | 87 | 1020.9 |
| 20260502070420 | 2 | 337 | 1.6 | 1.6 | 0.00 | 0.00 | 0.00 | 86 | 1020.8 |
| 20260502065918 | 2 | 334 | 0.0 | 0.0 | 0.00 | 0.00 | 0.00 | 86 | 1021.0 |
| 20260502065416 | 2 | 335 | 0.0 | 0.0 | 0.00 | 0.00 | 0.00 | 85 | 1020.9 |
| 20260502064914 | 3 | 336 | 0.0 | 0.0 | 0.00 | 0.00 | 0.00 | 84 | 1020.9 |
| 20260502064411 | 3 | 336 | 0.0 | 0.0 | 0.00 | 0.00 | 0.00 | 82 | 1020.9 |
| 20260502063908 | 3 | 341 | 1.6 | 1.6 | 0.00 | 0.00 | 0.00 | 79 | 1021.1 |
| 20260502063406 | 3 | 0 | 1.6 | 1.6 | 0.00 | 0.00 | 0.00 | 77 | 1020.9 |
| 20260502062903 | 3 | 347 | 0.0 | 0.0 | 0.00 | 0.00 | 0.00 | 78 | 1021.2 |
| 20260502062400 | 3 | 340 | 0.0 | 0.0 | 0.00 | 0.00 | 0.00 | 78 | 1021.1 |
| 20260502061859 | 3 | 340 | 0.0 | 0.0 | 0.00 | 0.00 | 0.00 | 77 | 1021.0 |
| 20260502061357 | 3 | 342 | 0.0 | 1.6 | 0.00 | 0.00 | 0.00 | 77 | 1021.1 |
| 20260502060852 | 4 | 338 | 0.0 | 0.0 | 0.00 | 0.00 | 0.00 | 77 | 1021.2 |
| 20260502060347 | 4 | 340 | 0.0 | 0.0 | 0.00 | 0.00 | 0.00 | 76 | 1021.1 |
| 20260502055845 | 4 | 346 | 0.0 | 0.0 | 0.00 | 0.00 | 0.00 | 76 | 1021.1 |
| 20260502055343 | 4 | 350 | 0.0 | 1.6 | 0.00 | 0.00 | 0.00 | 76 | 1020.9 |
| 20260502054842 | 4 | 338 | 0.0 | 0.0 | 0.00 | 0.00 | 0.00 | 76 | 1020.9 |
| 20260502054339 | 4 | 353 | 1.6 | 1.6 | 0.00 | 0.00 | 0.00 | 76 | 1021.0 |
| 20260502053837 | 4 | 346 | 0.0 | 1.6 | 0.00 | 0.00 | 0.00 | 75 | 1021.1 |
| 20260502053334 | 5 | 349 | 0.0 | 1.6 | 0.00 | 0.00 | 0.00 | 74 | 1021.0 |
| 20260502052831 | 5 | 9 | 3.2 | 3.2 | 0.00 | 0.00 | 0.00 | 73 | 1021.0 |
| 20260502052329 | 5 | 351 | 1.6 | 1.6 | 0.00 | 0.00 | 0.00 | 74 | 1021.0 |
| 20260502051827 | 5 | 359 | 1.6 | 1.6 | 0.00 | 0.00 | 0.00 | 73 | 1020.8 |
| 20260502051326 | 5 | 1 | 1.6 | 1.6 | 0.00 | 0.00 | 0.00 | 72 | 1020.8 |
| 20260502050821 | 5 | 21 | 1.6 | 1.6 | 0.00 | 0.00 | 0.00 | 72 | 1020.7 |
| 20260502050318 | 5 | 46 | 3.2 | 3.2 | 0.00 | 0.00 | 0.00 | 71 | 1020.7 |
| 20260502045815 | 5 | 348 | 0.0 | 1.6 | 0.00 | 0.00 | 0.00 | 71 | 1020.9 |
| 20260502045312 | 5 | 355 | 1.6 | 1.6 | 0.00 | 0.00 | 0.00 | 70 | 1020.7 |
| 20260502044809 | 5 | 29 | 3.2 | 3.2 | 0.00 | 0.00 | 0.00 | 70 | 1020.7 |
| 20260502044305 | 5 | 39 | 1.6 | 1.6 | 0.00 | 0.00 | 0.00 | 69 | 1020.6 |
| 20260502043802 | 5 | 20 | 1.6 | 1.6 | 0.00 | 0.00 | 0.00 | 69 | 1020.6 |
| 20260502043300 | 5 | 49 | 1.6 | 3.2 | 0.00 | 0.00 | 0.00 | 68 | 1020.5 |
| 20260502042759 | 5 | 52 | 1.6 | 1.6 | 0.00 | 0.00 | 0.00 | 67 | 1020.5 |
| 20260502042256 | 6 | 2 | 1.6 | 1.6 | 0.00 | 0.00 | 0.00 | 67 | 1020.4 |
| 20260502041754 | 6 | 34 | 3.2 | 4.8 | 0.00 | 0.00 | 0.00 | 66 | 1020.2 |
| 20260502041251 | 6 | 54 | 4.8 | 4.8 | 0.00 | 0.00 | 0.00 | 65 | 1020.2 |
| 20260502040748 | 6 | 31 | 1.6 | 1.6 | 0.00 | 0.00 | 0.00 | 64 | 1020.3 |
| 20260502040245 | 6 | 47 | 3.2 | 4.8 | 0.00 | 0.00 | 0.00 | 64 | 1020.3 |
| 20260502035741 | 6 | 13 | 4.8 | 4.8 | 0.00 | 0.00 | 0.00 | 63 | 1020.1 |
| 20260502035238 | 6 | 53 | 1.6 | 3.2 | 0.00 | 0.00 | 0.00 | 63 | 1020.1 |
| 20260502034735 | 6 | 28 | 3.2 | 4.8 | 0.00 | 0.00 | 0.00 | 62 | 1020.1 |
| 20260502034233 | 6 | 15 | 1.6 | 1.6 | 0.00 | 0.00 | 0.00 | 61 | 1020.2 |
| 20260502033731 | 6 | 26 | 1.6 | 1.6 | 0.00 | 0.00 | 0.00 | 61 | 1020.0 |
| 20260502033229 | 6 | 38 | 3.2 | 4.8 | 0.00 | 0.00 | 0.00 | 62 | 1019.9 |
| 20260502032725 | 6 | 2 | 3.2 | 3.2 | 0.00 | 0.00 | 0.00 | 63 | 1020.0 |
| 20260502032221 | 6 | 72 | 6.4 | 9.7 | 0.00 | 0.00 | 0.00 | 67 | 1019.8 |
| 20260502031719 | 5 | 2 | 3.2 | 3.2 | 0.00 | 0.00 | 0.00 | 78 | 1019.9 |
| 20260502031217 | 6 | 340 | 0.0 | 1.6 | 0.00 | 0.00 | 0.00 | 78 | 1019.7 |
| 20260502030716 | 6 | 336 | 0.0 | 0.0 | 0.00 | 0.00 | 0.00 | 75 | 1019.6 |
| 20260502030214 | 6 | 333 | 0.0 | 1.6 | 0.00 | 0.00 | 0.00 | 74 | 1019.5 |
| 20260502025710 | 6 | 329 | 1.6 | 1.6 | 0.00 | 0.00 | 0.00 | 73 | 1019.4 |
| 20260502025208 | 6 | 327 | 1.6 | 1.6 | 0.00 | 0.00 | 0.00 | 74 | 1019.4 |
| 20260502024705 | 6 | 330 | 1.6 | 1.6 | 0.00 | 0.00 | 0.00 | 73 | 1019.1 |
| 20260502024204 | 6 | 335 | 0.0 | 0.0 | 0.00 | 0.00 | 0.00 | 72 | 1019.0 |
| 20260502023701 | 6 | 331 | 0.0 | 0.0 | 0.00 | 0.00 | 0.00 | 71 | 1019.3 |
| 20260502023158 | 7 | 329 | 0.0 | 0.0 | 0.00 | 0.00 | 0.00 | 71 | 1019.1 |
| 20260502022655 | 7 | 324 | 1.6 | 1.6 | 0.00 | 0.00 | 0.00 | 71 | 1018.9 |
| 20260502022152 | 7 | 332 | 0.0 | 0.0 | 0.00 | 0.00 | 0.00 | 71 | 1018.9 |
| 20260502021650 | 7 | 335 | 1.6 | 1.6 | 0.00 | 0.00 | 0.00 | 66 | 1019.0 |
| 20260502021147 | 7 | 348 | 3.2 | 3.2 | 0.00 | 0.00 | 0.00 | 66 | 1018.9 |
| 20260502020644 | 8 | 345 | 1.6 | 1.6 | 0.00 | 0.00 | 0.00 | 65 | 1019.0 |
| 20260502020140 | 8 | 327 | 0.0 | 0.0 | 0.00 | 0.00 | 0.00 | 63 | 1018.9 |
| 20260502015639 | 8 | 319 | 3.2 | 3.2 | 0.00 | 0.00 | 0.00 | 62 | 1018.6 |
| 20260502015134 | 8 | 331 | 0.0 | 1.6 | 0.00 | 0.00 | 0.00 | 63 | 1018.7 |
| 20260502014632 | 8 | 334 | 0.0 | 0.0 | 0.00 | 0.00 | 0.00 | 62 | 1018.6 |
| 20260502014129 | 8 | 344 | 0.0 | 1.6 | 0.00 | 0.00 | 0.00 | 61 | 1018.2 |
| 20260502013625 | 9 | 339 | 0.0 | 1.6 | 0.00 | 0.00 | 0.00 | 57 | 1018.3 |
| 20260502013120 | 10 | 334 | 1.6 | 1.6 | 0.00 | 0.00 | 0.00 | 56 | 1018.3 |
| 20260502012618 | 10 | 326 | 1.6 | 1.6 | 0.00 | 0.00 | 0.00 | 55 | 1018.3 |
| 20260502012116 | 9 | 332 | 0.0 | 0.0 | 0.00 | 0.00 | 0.00 | 56 | 1018.3 |
| 20260502011613 | 10 | 332 | 0.0 | 0.0 | 0.00 | 0.00 | 0.00 | 55 | 1018.1 |
| 20260502011108 | 10 | 340 | 1.6 | 1.6 | 0.00 | 0.00 | 0.00 | 55 | 1018.1 |
| 20260502010606 | 10 | 336 | 0.0 | 0.0 | 0.00 | 0.00 | 0.00 | 53 | 1018.2 |
| 20260502005600 | 10 | 357 | 3.2 | 4.8 | 0.00 | 0.00 | 0.00 | 52 | 1018.3 |
| 20260502005058 | 10 | 0 | 3.2 | 3.2 | 0.00 | 0.00 | 0.00 | 50 | 1018.0 |
| 20260502004553 | 11 | 322 | 1.6 | 3.2 | 0.00 | 0.00 | 0.00 | 50 | 1017.9 |
| 20260502004050 | 11 | 323 | 3.2 | 3.2 | 0.00 | 0.00 | 0.00 | 49 | 1018.0 |
| 20260502003548 | 11 | 348 | 3.2 | 3.2 | 0.00 | 0.00 | 0.00 | 49 | 1018.1 |
| 20260502003045 | 11 | 331 | 1.6 | 3.2 | 0.00 | 0.00 | 0.00 | 49 | 1018.0 |